#datetime,building,power
2024-01-23T10:25:00,mfh,78.41
2024-01-23T10:26:00,mfh,77.20
2024-01-23T10:27:00,mfh,75.09
2024-01-23T10:28:00,mfh,75.07
2024-01-23T10:29:00,mfh,77.35
2024-01-23T10:30:00,mfh,77.25
2024-01-23T10:31:00,mfh,77.06
2024-01-23T10:32:00,mfh,78.00
2024-01-23T10:33:00,mfh,78.21
2024-01-23T10:34:00,mfh,78.59
2024-01-23T10:35:00,mfh,78.05
2024-01-23T10:36:00,mfh,78.44
2024-01-23T10:37:00,mfh,77.91
2024-01-23T10:38:00,mfh,78.44
2024-01-23T10:39:00,mfh,78.09
2024-01-23T10:40:00,mfh,78.00
2024-01-23T10:41:00,mfh,78.55
2024-01-23T10:42:00,mfh,78.31
2024-01-23T10:43:00,mfh,78.15
2024-01-23T10:44:00,mfh,78.01
2024-01-23T10:45:00,mfh,77.32
2024-01-23T10:46:00,mfh,77.67
2024-01-23T10:47:00,mfh,77.98
2024-01-23T10:48:00,mfh,77.82
2024-01-23T10:49:00,mfh,77.94
2024-01-23T10:50:00,mfh,78.35
2024-01-23T10:51:00,mfh,78.70
2024-01-23T10:52:00,mfh,78.25
2024-01-23T10:53:00,mfh,78.30
2024-01-23T10:54:00,mfh,78.36
2024-01-23T10:55:00,mfh,78.06
2024-01-23T10:56:00,mfh,77.25
2024-01-23T10:57:00,mfh,77.34
2024-01-23T10:58:00,mfh,77.66
2024-01-23T10:59:00,mfh,77.80
2024-01-23T11:00:00,mfh,77.50
2024-01-23T11:01:00,mfh,77.57
2024-01-23T11:02:00,mfh,77.34
2024-01-23T11:03:00,mfh,77.57
2024-01-23T11:04:00,mfh,77.77
2024-01-23T11:05:00,mfh,77.41
2024-01-23T11:06:00,mfh,77.67
2024-01-23T11:07:00,mfh,76.52
2024-01-23T11:08:00,mfh,77.17
2024-01-23T11:09:00,mfh,77.70
2024-01-23T11:10:00,mfh,75.92
2024-01-23T11:11:00,mfh,76.52
2024-01-23T11:12:00,mfh,76.86
2024-01-23T11:13:00,mfh,76.50
2024-01-23T11:14:00,mfh,77.41
2024-01-23T11:15:00,mfh,77.09
2024-01-23T11:16:00,mfh,77.75
2024-01-23T11:17:00,mfh,78.25
2024-01-23T11:18:00,mfh,77.61
2024-01-23T11:19:00,mfh,77.66
2024-01-23T11:20:00,mfh,77.63
2024-01-23T11:21:00,mfh,77.27
2024-01-23T11:22:00,mfh,77.05
2024-01-23T11:23:00,mfh,77.00
2024-01-23T11:24:00,mfh,78.81
2024-01-23T11:25:00,mfh,77.70
2024-01-23T11:26:00,mfh,78.37
2024-01-23T11:27:00,mfh,78.27
2024-01-23T11:28:00,mfh,78.38
2024-01-23T11:29:00,mfh,78.75
2024-01-23T11:30:00,mfh,77.10
2024-01-23T11:31:00,mfh,78.29
2024-01-23T11:32:00,mfh,77.75
2024-01-23T11:33:00,mfh,77.45
2024-01-23T11:34:00,mfh,78.59
2024-01-23T11:35:00,mfh,77.90
2024-01-23T11:36:00,mfh,78.29
2024-01-23T11:37:00,mfh,77.47
2024-01-23T11:38:00,mfh,77.92
2024-01-23T11:39:00,mfh,77.90
2024-01-23T11:40:00,mfh,78.73
2024-01-23T11:41:00,mfh,77.98
2024-01-23T11:42:00,mfh,77.67
2024-01-23T11:43:00,mfh,77.67
2024-01-23T11:44:00,mfh,77.63
2024-01-23T11:45:00,mfh,77.75
2024-01-23T11:46:00,mfh,78.40
2024-01-23T11:47:00,mfh,77.04
2024-01-23T11:48:00,mfh,77.20
2024-01-23T11:49:00,mfh,77.75
2024-01-23T11:50:00,mfh,77.52
2024-01-23T11:51:00,mfh,77.51
2024-01-23T11:52:00,mfh,78.15
2024-01-23T11:53:00,mfh,78.14
2024-01-23T11:54:00,mfh,78.19
2024-01-23T11:55:00,mfh,77.90
2024-01-23T11:56:00,mfh,77.71
2024-01-23T11:57:00,mfh,78.15
2024-01-23T11:58:00,mfh,77.21
2024-01-23T11:59:00,mfh,77.37
2024-01-23T12:00:00,mfh,76.99
2024-01-23T12:01:00,mfh,76.52
2024-01-23T12:02:00,mfh,76.59
2024-01-23T12:03:00,mfh,76.55
2024-01-23T12:04:00,mfh,76.94
2024-01-23T12:05:00,mfh,77.01
2024-01-23T12:06:00,mfh,77.23
2024-01-23T12:07:00,mfh,77.04
2024-01-23T12:08:00,mfh,77.24
2024-01-23T12:09:00,mfh,77.09
2024-01-23T12:10:00,mfh,76.78
2024-01-23T12:11:00,mfh,77.24
2024-01-23T12:12:00,mfh,76.57
2024-01-23T12:13:00,mfh,76.15
2024-01-23T12:14:00,mfh,75.72
2024-01-23T12:15:00,mfh,75.58
2024-01-23T12:16:00,mfh,76.09
2024-01-23T12:17:00,mfh,79.40
2024-01-23T12:18:00,mfh,78.57
2024-01-23T12:19:00,mfh,77.45
2024-01-23T12:20:00,mfh,77.30
2024-01-23T12:21:00,mfh,77.40
2024-01-23T12:22:00,mfh,77.24
2024-01-23T12:23:00,mfh,77.39
2024-01-23T12:24:00,mfh,77.52
2024-01-23T12:25:00,mfh,78.22
2024-01-23T12:26:00,mfh,77.67
2024-01-23T12:27:00,mfh,77.65
2024-01-23T12:28:00,mfh,74.59
2024-01-23T12:29:00,mfh,74.11
2024-01-23T12:30:00,mfh,74.33
2024-01-23T12:31:00,mfh,71.10
2024-01-23T12:32:00,mfh,69.75
2024-01-23T12:33:00,mfh,70.32
2024-01-23T12:34:00,mfh,69.79
2024-01-23T12:35:00,mfh,69.94
2024-01-23T12:36:00,mfh,69.77
2024-01-23T12:37:00,mfh,69.92
2024-01-23T12:38:00,mfh,69.68
2024-01-23T12:39:00,mfh,69.39
2024-01-23T12:40:00,mfh,69.49
2024-01-23T12:41:00,mfh,69.76
2024-01-23T12:42:00,mfh,70.02
2024-01-23T12:43:00,mfh,70.22
2024-01-23T12:44:00,mfh,70.41
2024-01-23T12:45:00,mfh,66.54
2024-01-23T12:46:00,mfh,70.12
2024-01-23T12:47:00,mfh,69.70
2024-01-23T12:48:00,mfh,69.81
2024-01-23T12:49:00,mfh,69.85
2024-01-23T12:50:00,mfh,69.28
2024-01-23T12:51:00,mfh,69.58
2024-01-23T12:52:00,mfh,68.78
2024-01-23T12:53:00,mfh,68.98
2024-01-23T12:54:00,mfh,69.53
2024-01-23T12:55:00,mfh,69.69
2024-01-23T12:56:00,mfh,70.52
2024-01-23T12:57:00,mfh,69.31
2024-01-23T12:58:00,mfh,70.01
2024-01-23T12:59:00,mfh,74.29
2024-01-23T13:00:00,mfh,77.53
2024-01-23T13:01:00,mfh,77.35
2024-01-23T13:02:00,mfh,77.00
2024-01-23T13:03:00,mfh,76.40
2024-01-23T13:04:00,mfh,76.69
2024-01-23T13:05:00,mfh,76.87
2024-01-23T13:06:00,mfh,77.29
2024-01-23T13:07:00,mfh,77.16
2024-01-23T13:08:00,mfh,76.88
2024-01-23T13:09:00,mfh,76.92
2024-01-23T13:10:00,mfh,78.31
2024-01-23T13:11:00,mfh,74.62
2024-01-23T13:12:00,mfh,78.00
2024-01-23T13:13:00,mfh,77.91
2024-01-23T13:14:00,mfh,77.64
2024-01-23T13:15:00,mfh,77.72
2024-01-23T13:16:00,mfh,76.66
2024-01-23T13:17:00,mfh,76.71
2024-01-23T13:18:00,mfh,76.62
2024-01-23T13:19:00,mfh,76.87
2024-01-23T13:20:00,mfh,77.24
2024-01-23T13:21:00,mfh,76.62
2024-01-23T13:22:00,mfh,76.69
2024-01-23T13:23:00,mfh,76.58
2024-01-23T13:24:00,mfh,76.57
2024-01-23T13:25:00,mfh,76.46
2024-01-23T13:26:00,mfh,76.39
2024-01-23T13:27:00,mfh,76.35
2024-01-23T13:28:00,mfh,76.29
2024-01-23T13:29:00,mfh,75.95
2024-01-23T13:30:00,mfh,75.80
2024-01-23T13:31:00,mfh,76.68
2024-01-23T13:32:00,mfh,76.92
2024-01-23T13:33:00,mfh,77.00
2024-01-23T13:34:00,mfh,77.04
2024-01-23T13:35:00,mfh,77.28
2024-01-23T13:36:00,mfh,77.06
2024-01-23T13:37:00,mfh,77.34
2024-01-23T13:38:00,mfh,77.23
2024-01-23T13:39:00,mfh,77.24
2024-01-23T13:40:00,mfh,77.23
2024-01-23T13:41:00,mfh,77.74
2024-01-23T13:42:00,mfh,77.32
2024-01-23T13:43:00,mfh,77.16
2024-01-23T13:44:00,mfh,77.06
2024-01-23T13:45:00,mfh,77.59
2024-01-23T13:46:00,mfh,71.30
2024-01-23T13:47:00,mfh,71.69
2024-01-23T13:48:00,mfh,70.74
2024-01-23T13:49:00,mfh,74.98
2024-01-23T13:50:00,mfh,73.52
2024-01-23T13:51:00,mfh,72.73
2024-01-23T13:52:00,mfh,72.71
2024-01-23T13:53:00,mfh,72.29
2024-01-23T13:54:00,mfh,71.66
2024-01-23T13:55:00,mfh,71.81
2024-01-23T13:56:00,mfh,72.48
2024-01-23T13:57:00,mfh,72.66
2024-01-23T13:58:00,mfh,72.86
2024-01-23T13:59:00,mfh,73.03
2024-01-23T14:00:00,mfh,76.42
2024-01-23T14:01:00,mfh,76.19
2024-01-23T14:02:00,mfh,76.28
2024-01-23T14:03:00,mfh,76.69
2024-01-23T14:04:00,mfh,76.47
2024-01-23T14:05:00,mfh,76.66
2024-01-23T14:06:00,mfh,76.42
2024-01-23T14:07:00,mfh,76.39
2024-01-23T14:08:00,mfh,75.22
2024-01-23T14:09:00,mfh,75.82
2024-01-23T14:10:00,mfh,76.30
2024-01-23T14:11:00,mfh,76.54
2024-01-23T14:12:00,mfh,75.94
2024-01-23T14:13:00,mfh,77.39
2024-01-23T14:14:00,mfh,77.40
2024-01-23T14:15:00,mfh,74.21
2024-01-23T14:16:00,mfh,74.43
2024-01-23T14:17:00,mfh,74.27
2024-01-23T14:18:00,mfh,74.20
2024-01-23T14:19:00,mfh,73.02
2024-01-23T14:20:00,mfh,72.91
2024-01-23T14:21:00,mfh,72.64
2024-01-23T14:22:00,mfh,72.73
2024-01-23T14:23:00,mfh,73.74
2024-01-23T14:24:00,mfh,72.88
2024-01-23T14:25:00,mfh,75.68
2024-01-23T14:26:00,mfh,77.46
2024-01-23T14:27:00,mfh,77.13
2024-01-23T14:28:00,mfh,78.19
2024-01-23T14:29:00,mfh,78.11
2024-01-23T14:30:00,mfh,77.89
2024-01-23T14:31:00,mfh,77.32
2024-01-23T14:32:00,mfh,78.47
2024-01-23T14:33:00,mfh,78.81
2024-01-23T14:34:00,mfh,77.31
2024-01-23T14:35:00,mfh,77.22
2024-01-23T14:36:00,mfh,76.86
2024-01-23T14:37:00,mfh,77.15
2024-01-23T14:38:00,mfh,76.90
2024-01-23T14:39:00,mfh,76.64
2024-01-23T14:40:00,mfh,76.65
2024-01-23T14:41:00,mfh,76.33
2024-01-23T14:42:00,mfh,75.98
2024-01-23T14:43:00,mfh,76.95
2024-01-23T14:44:00,mfh,75.91
2024-01-23T14:45:00,mfh,75.98
2024-01-23T14:46:00,mfh,77.15
2024-01-23T14:47:00,mfh,76.77
2024-01-23T14:48:00,mfh,77.43
2024-01-23T14:49:00,mfh,77.13
2024-01-23T14:50:00,mfh,77.42
2024-01-23T14:51:00,mfh,77.42
2024-01-23T14:52:00,mfh,77.45
2024-01-23T14:53:00,mfh,77.49
2024-01-23T14:54:00,mfh,77.43
2024-01-23T14:55:00,mfh,77.62
2024-01-23T14:56:00,mfh,77.85
2024-01-23T14:57:00,mfh,77.65
2024-01-23T14:58:00,mfh,77.77
2024-01-23T14:59:00,mfh,77.46
2024-01-23T15:00:00,mfh,78.37
2024-01-23T15:01:00,mfh,77.70
2024-01-23T15:02:00,mfh,77.45
2024-01-23T15:03:00,mfh,78.28
2024-01-23T15:04:00,mfh,78.21
2024-01-23T15:05:00,mfh,78.10
2024-01-23T15:06:00,mfh,78.01
2024-01-23T15:07:00,mfh,78.02
2024-01-23T15:08:00,mfh,78.35
2024-01-23T15:09:00,mfh,78.43
2024-01-23T15:10:00,mfh,78.35
2024-01-23T15:11:00,mfh,78.91
2024-01-23T15:12:00,mfh,78.20
2024-01-23T15:13:00,mfh,78.34
2024-01-23T15:14:00,mfh,78.45
2024-01-23T15:15:00,mfh,78.46
2024-01-23T15:16:00,mfh,77.52
2024-01-23T15:17:00,mfh,78.38
2024-01-23T15:18:00,mfh,77.97
2024-01-23T15:19:00,mfh,78.30
2024-01-23T15:20:00,mfh,78.70
2024-01-23T15:21:00,mfh,78.76
2024-01-23T15:22:00,mfh,79.16
2024-01-23T15:23:00,mfh,79.19
2024-01-23T15:24:00,mfh,79.05
2024-01-23T15:25:00,mfh,78.79
2024-01-23T15:26:00,mfh,77.42
2024-01-23T15:27:00,mfh,77.53
2024-01-23T15:28:00,mfh,77.00
2024-01-23T15:29:00,mfh,77.18
2024-01-23T15:30:00,mfh,76.68
2024-01-23T15:31:00,mfh,76.79
2024-01-23T15:32:00,mfh,76.51
2024-01-23T15:33:00,mfh,77.96
2024-01-23T15:34:00,mfh,77.09
2024-01-23T15:35:00,mfh,76.85
2024-01-23T15:36:00,mfh,76.98
2024-01-23T15:37:00,mfh,77.95
2024-01-23T15:38:00,mfh,77.86
2024-01-23T15:39:00,mfh,78.32
2024-01-23T15:40:00,mfh,78.24
2024-01-23T15:41:00,mfh,77.92
2024-01-23T15:42:00,mfh,77.80
2024-01-23T15:43:00,mfh,77.26
2024-01-23T15:44:00,mfh,76.35
2024-01-23T15:45:00,mfh,76.88
2024-01-23T15:46:00,mfh,77.21
2024-01-23T15:47:00,mfh,77.31
2024-01-23T15:48:00,mfh,77.31
2024-01-23T15:49:00,mfh,76.96
2024-01-23T15:50:00,mfh,76.93
2024-01-23T15:51:00,mfh,77.08
2024-01-23T15:52:00,mfh,77.64
2024-01-23T15:53:00,mfh,77.27
2024-01-23T15:54:00,mfh,77.96
2024-01-23T15:55:00,mfh,77.39
2024-01-23T15:56:00,mfh,77.86
2024-01-23T15:57:00,mfh,78.56
2024-01-23T15:58:00,mfh,77.51
2024-01-23T15:59:00,mfh,77.54
2024-01-23T16:00:00,mfh,77.36
2024-01-23T16:01:00,mfh,77.83
2024-01-23T16:02:00,mfh,77.65
2024-01-23T16:03:00,mfh,78.33
2024-01-23T16:04:00,mfh,77.50
2024-01-23T16:05:00,mfh,77.91
2024-01-23T16:06:00,mfh,77.60
2024-01-23T16:07:00,mfh,77.80
2024-01-23T16:08:00,mfh,77.58
2024-01-23T16:09:00,mfh,78.89
2024-01-23T16:10:00,mfh,77.09
2024-01-23T16:11:00,mfh,76.70
2024-01-23T16:12:00,mfh,77.17
2024-01-23T16:13:00,mfh,76.50
2024-01-23T16:14:00,mfh,77.43
2024-01-23T16:15:00,mfh,77.53
2024-01-23T16:16:00,mfh,77.22
2024-01-23T16:17:00,mfh,77.59
2024-01-23T16:18:00,mfh,77.33
2024-01-23T16:19:00,mfh,77.75
2024-01-23T16:20:00,mfh,77.83
2024-01-23T16:21:00,mfh,77.26
2024-01-23T16:22:00,mfh,77.58
2024-01-23T16:23:00,mfh,77.29
2024-01-23T16:24:00,mfh,77.34
2024-01-23T16:25:00,mfh,78.22
2024-01-23T16:26:00,mfh,77.12
2024-01-23T16:27:00,mfh,77.97
2024-01-23T16:28:00,mfh,77.60
2024-01-23T16:29:00,mfh,77.76
2024-01-23T16:30:00,mfh,78.07
2024-01-23T16:31:00,mfh,78.09
2024-01-23T16:32:00,mfh,78.76
2024-01-23T16:33:00,mfh,78.86
2024-01-23T16:34:00,mfh,78.27
2024-01-23T16:35:00,mfh,78.17
2024-01-23T16:36:00,mfh,78.43
2024-01-23T16:37:00,mfh,79.18
2024-01-23T16:38:00,mfh,79.34
2024-01-23T16:39:00,mfh,79.32
2024-01-23T16:40:00,mfh,79.00
2024-01-23T16:41:00,mfh,78.80
2024-01-23T16:42:00,mfh,78.94
2024-01-23T16:43:00,mfh,78.99
2024-01-23T16:44:00,mfh,79.25
2024-01-23T16:45:00,mfh,79.01
2024-01-23T16:46:00,mfh,79.44
2024-01-23T16:47:00,mfh,79.48
2024-01-23T16:48:00,mfh,79.19
2024-01-23T16:49:00,mfh,79.16
2024-01-23T16:50:00,mfh,79.21
2024-01-23T16:51:00,mfh,79.34
2024-01-23T16:52:00,mfh,79.54
2024-01-23T16:53:00,mfh,79.59
2024-01-23T16:54:00,mfh,79.52
2024-01-23T16:55:00,mfh,79.21
2024-01-23T16:56:00,mfh,78.82
2024-01-23T16:57:00,mfh,79.04
2024-01-23T16:58:00,mfh,80.01
2024-01-23T16:59:00,mfh,79.75
2024-01-23T17:00:00,mfh,79.69
2024-01-23T17:01:00,mfh,79.27
2024-01-23T17:02:00,mfh,79.27
2024-01-23T17:03:00,mfh,79.42
2024-01-23T17:04:00,mfh,79.53
2024-01-23T17:05:00,mfh,79.70
2024-01-23T17:06:00,mfh,79.93
2024-01-23T17:07:00,mfh,79.51
2024-01-23T17:08:00,mfh,79.54
2024-01-23T17:09:00,mfh,78.17
2024-01-23T17:10:00,mfh,78.36
2024-01-23T17:11:00,mfh,79.28
2024-01-23T17:12:00,mfh,79.13
2024-01-23T17:13:00,mfh,78.98
2024-01-23T17:14:00,mfh,78.94
2024-01-23T17:15:00,mfh,78.63
2024-01-23T17:16:00,mfh,78.83
2024-01-23T17:17:00,mfh,78.75
2024-01-23T17:18:00,mfh,79.14
2024-01-23T17:19:00,mfh,79.66
2024-01-23T17:20:00,mfh,79.23
2024-01-23T17:21:00,mfh,79.67
2024-01-23T17:22:00,mfh,79.33
2024-01-23T17:23:00,mfh,79.17
2024-01-23T17:24:00,mfh,79.37
2024-01-23T17:25:00,mfh,78.55
2024-01-23T17:26:00,mfh,78.23
2024-01-23T17:27:00,mfh,78.29
2024-01-23T17:28:00,mfh,78.77
2024-01-23T17:29:00,mfh,78.65
2024-01-23T17:30:00,mfh,78.30
2024-01-23T17:31:00,mfh,78.47
2024-01-23T17:32:00,mfh,78.54
2024-01-23T17:33:00,mfh,78.19
2024-01-23T17:34:00,mfh,78.59
2024-01-23T17:35:00,mfh,79.03
2024-01-23T17:36:00,mfh,78.96
2024-01-23T17:37:00,mfh,78.92
2024-01-23T17:38:00,mfh,78.73
2024-01-23T17:39:00,mfh,78.67
2024-01-23T17:40:00,mfh,78.15
2024-01-23T17:41:00,mfh,78.31
2024-01-23T17:42:00,mfh,78.59
2024-01-23T17:43:00,mfh,78.68
2024-01-23T17:44:00,mfh,79.37
2024-01-23T17:45:00,mfh,79.10
2024-01-23T17:46:00,mfh,79.14
2024-01-23T17:47:00,mfh,79.28
2024-01-23T17:48:00,mfh,79.57
2024-01-23T17:49:00,mfh,79.36
2024-01-23T17:50:00,mfh,79.07
2024-01-23T17:51:00,mfh,78.02
2024-01-23T17:52:00,mfh,78.27
2024-01-23T17:53:00,mfh,78.15
2024-01-23T17:54:00,mfh,78.23
2024-01-23T17:55:00,mfh,78.19
2024-01-23T17:56:00,mfh,78.52
2024-01-23T17:57:00,mfh,78.74
2024-01-23T17:58:00,mfh,78.19
2024-01-23T17:59:00,mfh,78.33
2024-01-23T18:00:00,mfh,78.29
2024-01-23T18:01:00,mfh,78.80
2024-01-23T18:02:00,mfh,78.58
2024-01-23T18:03:00,mfh,78.22
2024-01-23T18:04:00,mfh,78.26
2024-01-23T18:05:00,mfh,77.85
2024-01-23T18:06:00,mfh,77.96
2024-01-23T18:07:00,mfh,77.95
2024-01-23T18:08:00,mfh,77.93
2024-01-23T18:09:00,mfh,78.15
2024-01-23T18:10:00,mfh,78.61
2024-01-23T18:11:00,mfh,80.25
2024-01-23T18:12:00,mfh,79.23
2024-01-23T18:13:00,mfh,80.28
2024-01-23T18:14:00,mfh,79.17
2024-01-23T18:15:00,mfh,79.61
2024-01-23T18:16:00,mfh,79.73
2024-01-23T18:17:00,mfh,79.89
2024-01-23T18:18:00,mfh,80.68
2024-01-23T18:19:00,mfh,79.57
2024-01-23T18:20:00,mfh,79.78
2024-01-23T18:21:00,mfh,79.65
2024-01-23T18:22:00,mfh,80.24
2024-01-23T18:23:00,mfh,79.63
2024-01-23T18:24:00,mfh,78.47
2024-01-23T18:25:00,mfh,78.39
2024-01-23T18:26:00,mfh,79.36
2024-01-23T18:27:00,mfh,78.82
2024-01-23T18:28:00,mfh,78.25
2024-01-23T18:29:00,mfh,78.25
2024-01-23T18:30:00,mfh,77.64
2024-01-23T18:31:00,mfh,71.20
2024-01-23T18:32:00,mfh,71.54
2024-01-23T18:33:00,mfh,72.14
2024-01-23T18:34:00,mfh,71.70
2024-01-23T18:35:00,mfh,71.72
2024-01-23T18:36:00,mfh,72.28
2024-01-23T18:37:00,mfh,72.86
2024-01-23T18:38:00,mfh,72.85
2024-01-23T18:39:00,mfh,72.99
2024-01-23T18:40:00,mfh,72.53
2024-01-23T18:41:00,mfh,72.65
2024-01-23T18:42:00,mfh,72.67
2024-01-23T18:43:00,mfh,73.89
2024-01-23T18:44:00,mfh,71.82
2024-01-23T18:45:00,mfh,72.52
2024-01-23T18:46:00,mfh,71.36
2024-01-23T18:47:00,mfh,71.75
2024-01-23T18:48:00,mfh,71.27
2024-01-23T18:49:00,mfh,71.44
2024-01-23T18:50:00,mfh,68.40
2024-01-23T18:51:00,mfh,68.52
2024-01-23T18:52:00,mfh,67.63
2024-01-23T18:53:00,mfh,67.43
2024-01-23T18:54:00,mfh,65.46
2024-01-23T18:55:00,mfh,65.30
2024-01-23T18:56:00,mfh,65.20
2024-01-23T18:57:00,mfh,68.75
2024-01-23T18:58:00,mfh,68.79
2024-01-23T18:59:00,mfh,68.66
2024-01-23T19:00:00,mfh,69.15
2024-01-23T19:01:00,mfh,69.12
2024-01-23T19:02:00,mfh,68.37
2024-01-23T19:03:00,mfh,68.77
2024-01-23T19:04:00,mfh,68.89
2024-01-23T19:05:00,mfh,69.22
2024-01-23T19:06:00,mfh,68.94
2024-01-23T19:07:00,mfh,69.35
2024-01-23T19:08:00,mfh,76.41
2024-01-23T19:09:00,mfh,76.47
2024-01-23T19:10:00,mfh,76.57
2024-01-23T19:11:00,mfh,76.58
2024-01-23T19:12:00,mfh,76.67
2024-01-23T19:13:00,mfh,77.28
2024-01-23T19:14:00,mfh,77.31
2024-01-23T19:15:00,mfh,77.43
2024-01-23T19:16:00,mfh,76.94
2024-01-23T19:17:00,mfh,76.99
2024-01-23T19:18:00,mfh,77.05
2024-01-23T19:19:00,mfh,77.09
2024-01-23T19:20:00,mfh,77.34
2024-01-23T19:21:00,mfh,77.33
2024-01-23T19:22:00,mfh,77.58
2024-01-23T19:23:00,mfh,76.77
2024-01-23T19:24:00,mfh,77.03
2024-01-23T19:25:00,mfh,76.54
2024-01-23T19:26:00,mfh,76.04
2024-01-23T19:27:00,mfh,76.23
2024-01-23T19:28:00,mfh,76.88
2024-01-23T19:29:00,mfh,76.59
2024-01-23T19:30:00,mfh,76.58
2024-01-23T19:31:00,mfh,77.01
2024-01-23T19:32:00,mfh,76.39
2024-01-23T19:33:00,mfh,76.81
2024-01-23T19:34:00,mfh,78.72
2024-01-23T19:35:00,mfh,79.14
2024-01-23T19:36:00,mfh,79.31
2024-01-23T19:37:00,mfh,79.35
2024-01-23T19:38:00,mfh,79.10
2024-01-23T19:39:00,mfh,78.95
2024-01-23T19:40:00,mfh,78.90
2024-01-23T19:41:00,mfh,78.45
2024-01-23T19:42:00,mfh,78.58
2024-01-23T19:43:00,mfh,78.48
2024-01-23T19:44:00,mfh,78.66
2024-01-23T19:45:00,mfh,78.40
2024-01-23T19:46:00,mfh,78.73
2024-01-23T19:47:00,mfh,78.00
2024-01-23T19:48:00,mfh,78.02
2024-01-23T19:49:00,mfh,78.41
2024-01-23T19:50:00,mfh,80.47
2024-01-23T19:51:00,mfh,80.45
2024-01-23T19:52:00,mfh,80.41
2024-01-23T19:53:00,mfh,80.34
2024-01-23T19:54:00,mfh,80.31
2024-01-23T19:55:00,mfh,80.22
2024-01-23T19:56:00,mfh,80.20
2024-01-23T19:57:00,mfh,80.22
2024-01-23T19:58:00,mfh,80.08
2024-01-23T19:59:00,mfh,80.19
2024-01-23T20:00:00,mfh,79.95
2024-01-23T20:01:00,mfh,80.06
2024-01-23T20:02:00,mfh,80.14
2024-01-23T20:03:00,mfh,80.11
2024-01-23T20:04:00,mfh,80.12
2024-01-23T20:05:00,mfh,79.59
2024-01-23T20:06:00,mfh,79.98
2024-01-23T20:07:00,mfh,80.00
2024-01-23T20:08:00,mfh,79.59
2024-01-23T20:09:00,mfh,79.79
2024-01-23T20:10:00,mfh,79.49
2024-01-23T20:11:00,mfh,80.09
2024-01-23T20:12:00,mfh,80.10
2024-01-23T20:13:00,mfh,80.17
2024-01-23T20:14:00,mfh,80.52
2024-01-23T20:15:00,mfh,80.38
2024-01-23T20:16:00,mfh,80.38
2024-01-23T20:17:00,mfh,80.62
2024-01-23T20:18:00,mfh,80.48
2024-01-23T20:19:00,mfh,80.05
2024-01-23T20:20:00,mfh,78.04
2024-01-23T20:21:00,mfh,78.27
2024-01-23T20:22:00,mfh,78.83
2024-01-23T20:23:00,mfh,78.61
2024-01-23T20:24:00,mfh,78.23
2024-01-23T20:25:00,mfh,78.15
2024-01-23T20:26:00,mfh,78.23
2024-01-23T20:27:00,mfh,78.19
2024-01-23T20:28:00,mfh,78.38
2024-01-23T20:29:00,mfh,78.56
2024-01-23T20:30:00,mfh,78.26
2024-01-23T20:31:00,mfh,77.45
2024-01-23T20:32:00,mfh,77.67
2024-01-23T20:33:00,mfh,80.16
2024-01-23T20:34:00,mfh,80.34
2024-01-23T20:35:00,mfh,78.84
2024-01-23T20:36:00,mfh,77.63
2024-01-23T20:37:00,mfh,76.17
2024-01-23T20:38:00,mfh,75.75
2024-01-23T20:39:00,mfh,76.37
2024-01-23T20:40:00,mfh,76.56
2024-01-23T20:41:00,mfh,76.78
2024-01-23T20:42:00,mfh,76.75
2024-01-23T20:43:00,mfh,76.34
2024-01-23T20:44:00,mfh,76.54
2024-01-23T20:45:00,mfh,76.81
2024-01-23T20:46:00,mfh,76.94
2024-01-23T20:47:00,mfh,76.92
2024-01-23T20:48:00,mfh,77.01
2024-01-23T20:49:00,mfh,76.93
2024-01-23T20:50:00,mfh,76.65
2024-01-23T20:51:00,mfh,76.59
2024-01-23T20:52:00,mfh,76.91
2024-01-23T20:53:00,mfh,77.40
2024-01-23T20:54:00,mfh,77.37
2024-01-23T20:55:00,mfh,77.20
2024-01-23T20:56:00,mfh,76.94
2024-01-23T20:57:00,mfh,76.74
2024-01-23T20:58:00,mfh,76.42
2024-01-23T20:59:00,mfh,76.64
2024-01-23T21:00:00,mfh,76.54
2024-01-23T21:01:00,mfh,70.70
2024-01-23T21:02:00,mfh,71.27
2024-01-23T21:03:00,mfh,70.07
2024-01-23T21:04:00,mfh,70.11
2024-01-23T21:05:00,mfh,70.25
2024-01-23T21:06:00,mfh,70.45
2024-01-23T21:07:00,mfh,70.25
2024-01-23T21:08:00,mfh,69.97
2024-01-23T21:09:00,mfh,69.32
2024-01-23T21:10:00,mfh,69.08
2024-01-23T21:11:00,mfh,69.81
2024-01-23T21:12:00,mfh,69.01
2024-01-23T21:13:00,mfh,69.32
2024-01-23T21:14:00,mfh,68.53
2024-01-23T21:15:00,mfh,69.32
2024-01-23T21:16:00,mfh,69.88
2024-01-23T21:17:00,mfh,69.39
2024-01-23T21:18:00,mfh,65.17
2024-01-23T21:19:00,mfh,65.16
2024-01-23T21:20:00,mfh,64.94
2024-01-23T21:21:00,mfh,62.69
2024-01-23T21:22:00,mfh,64.95
2024-01-23T21:23:00,mfh,59.28
2024-01-23T21:24:00,mfh,58.88
2024-01-23T21:25:00,mfh,59.54
2024-01-23T21:26:00,mfh,59.73
2024-01-23T21:27:00,mfh,58.68
2024-01-23T21:28:00,mfh,63.73
2024-01-23T21:29:00,mfh,62.82
2024-01-23T21:30:00,mfh,62.67
2024-01-23T21:31:00,mfh,62.02
2024-01-23T21:32:00,mfh,61.87
2024-01-23T21:33:00,mfh,62.01
2024-01-23T21:34:00,mfh,66.98
2024-01-23T21:35:00,mfh,67.02
2024-01-23T21:36:00,mfh,67.26
2024-01-23T21:37:00,mfh,66.51
2024-01-23T21:38:00,mfh,66.92
2024-01-23T21:39:00,mfh,66.64
2024-01-23T21:40:00,mfh,69.83
2024-01-23T21:41:00,mfh,73.19
2024-01-23T21:42:00,mfh,73.37
2024-01-23T21:43:00,mfh,73.82
2024-01-23T21:44:00,mfh,73.35
2024-01-23T21:45:00,mfh,73.66
2024-01-23T21:46:00,mfh,73.71
2024-01-23T21:47:00,mfh,73.58
2024-01-23T21:48:00,mfh,73.77
2024-01-23T21:49:00,mfh,74.11
2024-01-23T21:50:00,mfh,73.26
2024-01-23T21:51:00,mfh,73.04
2024-01-23T21:52:00,mfh,72.96
2024-01-23T21:53:00,mfh,73.85
2024-01-23T21:54:00,mfh,74.05
2024-01-23T21:55:00,mfh,73.69
2024-01-23T21:56:00,mfh,73.48
2024-01-23T21:57:00,mfh,73.50
2024-01-23T21:58:00,mfh,73.52
2024-01-23T21:59:00,mfh,72.73
2024-01-23T22:00:00,mfh,72.88
2024-01-23T22:01:00,mfh,50.35
2024-01-23T22:02:00,mfh,50.00
2024-01-23T22:03:00,mfh,50.19
2024-01-23T22:04:00,mfh,49.83
2024-01-23T22:05:00,mfh,50.07
2024-01-23T22:06:00,mfh,50.88
2024-01-23T22:07:00,mfh,50.09
2024-01-23T22:08:00,mfh,50.15
2024-01-23T22:09:00,mfh,49.47
2024-01-23T22:10:00,mfh,48.96
2024-01-23T22:11:00,mfh,50.70
2024-01-23T22:12:00,mfh,49.37
2024-01-23T22:13:00,mfh,49.59
2024-01-23T22:14:00,mfh,38.01
2024-01-23T22:15:00,mfh,38.35
2024-01-23T22:16:00,mfh,37.90
2024-01-23T22:17:00,mfh,38.23
2024-01-23T22:18:00,mfh,33.90
2024-01-23T22:19:00,mfh,33.76
2024-01-23T22:20:00,mfh,33.50
2024-01-23T22:21:00,mfh,33.08
2024-01-23T22:22:00,mfh,31.36
2024-01-23T22:23:00,mfh,31.98
2024-01-23T22:24:00,mfh,31.09
2024-01-23T22:25:00,mfh,31.12
2024-01-23T22:26:00,mfh,31.10
2024-01-23T22:27:00,mfh,30.52
2024-01-23T22:28:00,mfh,30.44
2024-01-23T22:29:00,mfh,29.37
2024-01-23T22:30:00,mfh,29.89
2024-01-23T22:31:00,mfh,29.73
2024-01-23T22:32:00,mfh,29.75
2024-01-23T22:33:00,mfh,29.73
2024-01-23T22:34:00,mfh,25.66
2024-01-23T22:35:00,mfh,25.66
2024-01-23T22:36:00,mfh,25.71
2024-01-23T22:37:00,mfh,25.14
2024-01-23T22:38:00,mfh,25.21
2024-01-23T22:39:00,mfh,25.50
2024-01-23T22:40:00,mfh,26.81
2024-01-23T22:41:00,mfh,26.03
2024-01-23T22:42:00,mfh,26.01
2024-01-23T22:43:00,mfh,25.86
2024-01-23T22:44:00,mfh,25.56
2024-01-23T22:45:00,mfh,25.75
2024-01-23T22:46:00,mfh,25.23
2024-01-23T22:47:00,mfh,24.79
2024-01-23T22:48:00,mfh,24.86
2024-01-23T22:49:00,mfh,25.56
2024-01-23T22:50:00,mfh,25.51
2024-01-23T22:51:00,mfh,25.41
2024-01-23T22:52:00,mfh,26.04
2024-01-23T22:53:00,mfh,25.58
2024-01-23T22:54:00,mfh,25.69
2024-01-23T22:55:00,mfh,25.69
2024-01-23T22:56:00,mfh,24.84
2024-01-23T22:57:00,mfh,21.73
2024-01-23T22:58:00,mfh,21.79
2024-01-23T22:59:00,mfh,22.57
2024-01-23T23:00:00,mfh,24.64
2024-01-23T23:01:00,mfh,24.62
2024-01-23T23:02:00,mfh,24.60
2024-01-23T23:03:00,mfh,26.30
2024-01-23T23:04:00,mfh,26.32
2024-01-23T23:05:00,mfh,26.05
2024-01-23T23:06:00,mfh,26.06
2024-01-23T23:07:00,mfh,26.22
2024-01-23T23:08:00,mfh,26.34
2024-01-23T23:09:00,mfh,24.96
2024-01-23T23:10:00,mfh,24.94
2024-01-23T23:11:00,mfh,25.40
2024-01-23T23:12:00,mfh,25.01
2024-01-23T23:13:00,mfh,24.78
2024-01-23T23:14:00,mfh,25.60
2024-01-23T23:15:00,mfh,24.13
2024-01-23T23:16:00,mfh,24.28
2024-01-23T23:17:00,mfh,25.28
2024-01-23T23:18:00,mfh,25.88
2024-01-23T23:19:00,mfh,26.05
2024-01-23T23:20:00,mfh,26.07
2024-01-23T23:21:00,mfh,25.83
2024-01-23T23:22:00,mfh,25.90
2024-01-23T23:23:00,mfh,25.43
2024-01-23T23:24:00,mfh,24.14
2024-01-23T23:25:00,mfh,24.19
2024-01-23T23:26:00,mfh,24.17
2024-01-23T23:27:00,mfh,24.03
2024-01-23T23:28:00,mfh,24.80
2024-01-23T23:29:00,mfh,24.73
2024-01-23T23:30:00,mfh,24.78
2024-01-23T23:31:00,mfh,24.99
2024-01-23T23:32:00,mfh,25.01
2024-01-23T23:33:00,mfh,24.75
2024-01-23T23:34:00,mfh,23.98
2024-01-23T23:35:00,mfh,23.90
2024-01-23T23:36:00,mfh,24.76
2024-01-23T23:37:00,mfh,23.91
2024-01-23T23:38:00,mfh,24.56
2024-01-23T23:39:00,mfh,24.69
2024-01-23T23:40:00,mfh,24.87
2024-01-23T23:41:00,mfh,24.80
2024-01-23T23:42:00,mfh,24.84
2024-01-23T23:43:00,mfh,24.94